• en Suisse
  • Liste des pays
  • À 7 jours
  • Température de l'eau
  • Carte satellitaire
  • Carte météo
  • Widgets météo
  • user-avatar
    Se connecter

    Météo par heure à Serhiivka

    Ce jour, 20 Juillet, Vendredi

    Heure Température Précipitation Vent Pression Humidité
    00:00 +18°C° 0 mm 4 m/s 728 mmHg 93%
    01:00 +18°C° 0 mm 4 m/s 728 mmHg 94%
    02:00 +18°C° 0 mm 4 m/s 728 mmHg 95%
    03:00 +17°C° 0 mm 4 m/s 728 mmHg 95%
    04:00 +17°C° 0 mm 4 m/s 728 mmHg 96%
    05:00 +17°C° 0 mm 4 m/s 728 mmHg 96%
    06:00 +18°C° 0 mm 4 m/s 728 mmHg 93%
    07:00 +19°C° 0 mm 5 m/s 728 mmHg 90%
    08:00 +20°C° 0 mm 5 m/s 728 mmHg 86%
    09:00 +21°C° 0,4 mm 6 m/s 728 mmHg 84%
    10:00 +22°C° 0,4 mm 6 m/s 729 mmHg 81%
    11:00 +23°C° 0,4 mm 6 m/s 729 mmHg 78%
    12:00 +23°C° 0,7 mm 6 m/s 728 mmHg 78%
    13:00 +24°C° 0,7 mm 6 m/s 728 mmHg 77%
    14:00 +24°C° 0 mm 6 m/s 728 mmHg 76%
    15:00 +24°C° 0,5 mm 6 m/s 728 mmHg 76%
    16:00 +24°C° 0,5 mm 6 m/s 729 mmHg 77%
    17:00 +25°C° 0,5 mm 5 m/s 729 mmHg 78%
    18:00 +23°C° 0,2 mm 5 m/s 729 mmHg 82%
    19:00 +22°C° 0,2 mm 4 m/s 729 mmHg 87%
    20:00 +20°C° 0,2 mm 4 m/s 729 mmHg 91%
    21:00 +20°C° 0,2 mm 4 m/s 729 mmHg 92%
    22:00 +19°C° 0,2 mm 4 m/s 729 mmHg 93%
    23:00 +19°C° 0,2 mm 4 m/s 729 mmHg 94%

    Demain, 21 Juillet, Samedi

    Heure Température Précipitation Vent Pression Humidité
    00:00 +18°C° 0 mm 4 m/s 729 mmHg 95%
    01:00 +18°C° 0 mm 4 m/s 729 mmHg 95%
    02:00 +18°C° 0 mm 4 m/s 729 mmHg 95%
    03:00 +18°C° 0 mm 4 m/s 730 mmHg 95%
    04:00 +17°C° 0 mm 4 m/s 730 mmHg 96%
    05:00 +17°C° 0 mm 4 m/s 730 mmHg 96%
    06:00 +18°C° 0 mm 4 m/s 730 mmHg 93%
    07:00 +19°C° 0 mm 4 m/s 730 mmHg 91%
    08:00 +21°C° 0 mm 5 m/s 730 mmHg 88%
    09:00 +22°C° 0,2 mm 5 m/s 731 mmHg 83%
    10:00 +23°C° 0,2 mm 5 m/s 731 mmHg 78%
    11:00 +25°C° 0,2 mm 5 m/s 731 mmHg 74%
    12:00 +26°C° 0,5 mm 5 m/s 731 mmHg 72%
    13:00 +26°C° 0,5 mm 5 m/s 731 mmHg 70%
    14:00 +26°C° 0,5 mm 5 m/s 730 mmHg 68%
    15:00 +26°C° 0,2 mm 5 m/s 730 mmHg 68%
    16:00 +26°C° 0,2 mm 5 m/s 730 mmHg 68%
    17:00 +26°C° 0,2 mm 4 m/s 730 mmHg 69%
    18:00 +25°C° 0,2 mm 4 m/s 730 mmHg 74%
    19:00 +22°C° 0,2 mm 3 m/s 730 mmHg 79%
    20:00 +21°C° 0,2 mm 3 m/s 730 mmHg 84%
    21:00 +20°C° 0,1 mm 3 m/s 730 mmHg 86%
    22:00 +19°C° 0,1 mm 3 m/s 731 mmHg 88%
    23:00 +19°C° 0,1 mm 3 m/s 731 mmHg 91%

    Après-demain, 22 Juillet, Dimanche

    Heure Température Précipitation Vent Pression Humidité
    00:00 +18°C° 0 mm 2 m/s 731 mmHg 91%
    01:00 +18°C° 0 mm 2 m/s 731 mmHg 92%
    02:00 +17°C° 0 mm 2 m/s 730 mmHg 93%
    03:00 +17°C° 0 mm 2 m/s 730 mmHg 93%
    04:00 +17°C° 0 mm 2 m/s 730 mmHg 93%
    05:00 +17°C° 0 mm 2 m/s 730 mmHg 94%
    06:00 +18°C° 0 mm 3 m/s 730 mmHg 90%
    07:00 +20°C° 0 mm 3 m/s 731 mmHg 85%
    08:00 +21°C° 0 mm 3 m/s 731 mmHg 81%
    09:00 +22°C° 0,1 mm 3 m/s 731 mmHg 76%
    10:00 +25°C° 0,1 mm 3 m/s 731 mmHg 70%
    11:00 +26°C° 0,1 mm 4 m/s 730 mmHg 65%
    12:00 +26°C° 0 mm 4 m/s 730 mmHg 63%
    13:00 +27°C° 0 mm 4 m/s 730 mmHg 61%
    14:00 +27°C° 0 mm 4 m/s 730 mmHg 60%
    15:00 +27°C° 0,3 mm 4 m/s 729 mmHg 62%
    16:00 +27°C° 0,3 mm 4 m/s 729 mmHg 64%
    17:00 +26°C° 0,3 mm 4 m/s 729 mmHg 67%
    18:00 +25°C° 0,1 mm 3 m/s 729 mmHg 73%
    19:00 +22°C° 0,1 mm 3 m/s 729 mmHg 79%
    20:00 +21°C° 0,1 mm 2 m/s 729 mmHg 85%
    21:00 +20°C° 0 mm 2 m/s 729 mmHg 87%
    22:00 +20°C° 0 mm 2 m/s 729 mmHg 90%
    23:00 +19°C° 0 mm 2 m/s 729 mmHg 92%

    23 Juillet, Lundi

    Heure Température Précipitation Vent Pression Humidité
    00:00 +19°C° 0 mm 2 m/s 729 mmHg 93%
    01:00 +18°C° 0 mm 2 m/s 729 mmHg 94%
    02:00 +18°C° 0 mm 2 m/s 729 mmHg 95%
    03:00 +18°C° 0 mm 2 m/s 729 mmHg 95%
    04:00 +18°C° 0 mm 2 m/s 729 mmHg 95%
    05:00 +17°C° 0 mm 2 m/s 729 mmHg 96%
    06:00 +19°C° 0 mm 3 m/s 729 mmHg 92%
    07:00 +20°C° 0 mm 3 m/s 729 mmHg 88%
    08:00 +21°C° 0 mm 3 m/s 729 mmHg 84%
    09:00 +22°C° 0 mm 4 m/s 729 mmHg 79%
    10:00 +23°C° 0 mm 4 m/s 729 mmHg 74%
    11:00 +25°C° 0 mm 4 m/s 729 mmHg 69%
    12:00 +25°C° 0,2 mm 4 m/s 728 mmHg 70%
    13:00 +25°C° 0,2 mm 4 m/s 728 mmHg 70%
    14:00 +25°C° 0,2 mm 4 m/s 728 mmHg 71%
    15:00 +23°C° 0,4 mm 4 m/s 728 mmHg 74%
    16:00 +23°C° 0,4 mm 4 m/s 728 mmHg 76%
    17:00 +23°C° 0,4 mm 4 m/s 728 mmHg 79%
    18:00 +22°C° 0,6 mm 3 m/s 728 mmHg 83%
    19:00 +21°C° 0,6 mm 3 m/s 728 mmHg 87%
    20:00 +20°C° 0,6 mm 3 m/s 728 mmHg 91%
    21:00 +19°C° 0,5 mm 3 m/s 728 mmHg 93%
    22:00 +19°C° 0,5 mm 4 m/s 728 mmHg 95%
    23:00 +18°C° 0,5 mm 4 m/s 728 mmHg 96%

    24 Juillet, Mardi

    Heure Température Précipitation Vent Pression Humidité
    00:00 +18°C° 0,1 mm 4 m/s 728 mmHg 96%
    01:00 +18°C° 0,1 mm 4 m/s 727 mmHg 97%
    02:00 +18°C° 0,1 mm 4 m/s 727 mmHg 97%
    03:00 +18°C° 0,4 mm 4 m/s 727 mmHg 97%
    04:00 +19°C° 0,4 mm 4 m/s 728 mmHg 97%
    05:00 +19°C° 0,4 mm 4 m/s 728 mmHg 97%
    06:00 +19°C° 0,1 mm 4 m/s 728 mmHg 96%
    07:00 +19°C° 0,1 mm 4 m/s 728 mmHg 95%
    08:00 +19°C° 0,1 mm 4 m/s 728 mmHg 94%
    09:00 +20°C° 0,1 mm 4 m/s 728 mmHg 92%
    10:00 +21°C° 0,1 mm 4 m/s 729 mmHg 89%
    11:00 +21°C° 0,1 mm 5 m/s 729 mmHg 87%
    12:00 +22°C° 0,2 mm 5 m/s 729 mmHg 84%
    13:00 +23°C° 0,2 mm 5 m/s 728 mmHg 81%
    14:00 +24°C° 0,2 mm 6 m/s 728 mmHg 77%
    15:00 +25°C° 0,2 mm 5 m/s 728 mmHg 78%
    16:00 +25°C° 0,2 mm 5 m/s 728 mmHg 79%
    17:00 +25°C° 0,2 mm 4 m/s 728 mmHg 79%
    18:00 +22°C° 0,1 mm 4 m/s 728 mmHg 84%
    19:00 +21°C° 0,1 mm 3 m/s 728 mmHg 88%
    20:00 +20°C° 0,1 mm 2 m/s 728 mmHg 93%
    21:00 +20°C° 0,3 mm 3 m/s 728 mmHg 94%
    22:00 +19°C° 0,3 mm 3 m/s 728 mmHg 95%
    23:00 +19°C° 0,3 mm 3 m/s 728 mmHg 97%

    25 Juillet, Mercredi

    Heure Température Précipitation Vent Pression Humidité
    00:00 +18°C° 0 mm 3 m/s 728 mmHg 97%
    01:00 +18°C° 0 mm 3 m/s 728 mmHg 97%
    02:00 +18°C° 0 mm 2 m/s 728 mmHg 98%
    03:00 +18°C° 0 mm 2 m/s 728 mmHg 98%
    04:00 +18°C° 0 mm 2 m/s 728 mmHg 98%
    05:00 +18°C° 0 mm 2 m/s 728 mmHg 98%
    06:00 +18°C° 0 mm 3 m/s 729 mmHg 96%
    07:00 +19°C° 0 mm 3 m/s 729 mmHg 95%
    08:00 +20°C° 0 mm 3 m/s 729 mmHg 93%
    09:00 +20°C° 0 mm 3 m/s 729 mmHg 91%
    10:00 +21°C° 0 mm 3 m/s 729 mmHg 89%
    11:00 +21°C° 0 mm 3 m/s 729 mmHg 88%
    12:00 +22°C° 0,1 mm 3 m/s 729 mmHg 85%
    13:00 +24°C° 0,1 mm 3 m/s 729 mmHg 82%
    14:00 +24°C° 0,1 mm 3 m/s 729 mmHg 80%
    15:00 +25°C° 0,1 mm 3 m/s 729 mmHg 78%
    16:00 +25°C° 0,1 mm 3 m/s 729 mmHg 77%
    17:00 +26°C° 0,1 mm 3 m/s 729 mmHg 75%
    18:00 +25°C° 0,3 mm 2 m/s 729 mmHg 81%
    19:00 +23°C° 0,3 mm 2 m/s 729 mmHg 86%
    20:00 +21°C° 0,3 mm 2 m/s 729 mmHg 92%
    21:00 +21°C° 0 mm 2 m/s 729 mmHg 93%
    22:00 +20°C° 0 mm 2 m/s 729 mmHg 94%
    23:00 +19°C° 0 mm 2 m/s 729 mmHg 95%
    Voir plus